Terug naar catalogus

COSMOS 1275 DEB

ActiefPO
NORAD 39954·DEBRIS·🇷🇺 Russia

Gelanceerd Jun 4, 1981 vanaf Plesetsk Cosmodrome

Loading…

Volgende Passages (komende 24 uur)

TLE

VersSource: Space-Track

Epoch: Sep 14, 2026, 17:56 UTC

1 39954U 81053NQ  26257.74786441  .00004508  00000-0  13122-2 0  9998
2 39954  82.8904  15.1921 0036982 339.5599  20.4113 14.43681389636095

Volg COSMOS 1275 DEB in realtime met AllMySat

Download on the App Store